Location: BAF
(53.9483°N, 27.7497°E)
Time: 22:22:30
(UTC+02:00)

ISS - Pass Details

Date: 28 November 2020
Orbit: 418 x 419 km, 51.6° (Epoch: 16 January)

Event Time Altitude Azimuth Distance (km) Brightness Sun altitude
Rises 17:29:00 0° 248° (WSW) 2,363 2.1 -13.2°
Reaches altitude 10° 17:31:08 10° 243° (WSW) 1,500 0.5 -13.5°
Maximum altitude 17:34:23 48° 168° (SSE) 555 -3.2 -14.0°
Enters shadow 17:36:03 25° 104° (ESE) 904 -2.6 -14.2°
